AL7BX-WX Weather Reports


time (UTC)temp
F
wind
direction
speed
knots
gust
knots
rain 1hr
in
rain 24hr
in
rain mn
in
humidity
%
barometer
mb
20260508233603 82 296 1.7 5.2 0.00 0.00 0.00 22
20260508232703 82 138 1.7 5.2 0.00 0.00 0.00 18
20260508231803 82 100 2.6 5.2 0.00 0.00 0.00 18
20260508231113 82 80 1.7 5.2 0.00 0.00 0.00 18
20260508230003 82 78 2.6 6.1 0.00 0.00 0.00 20
20260508225403 82 89 4.3 8.7 0.00 0.00 0.00 19
20260508224503 82 111 2.6 5.2 0.00 0.00 0.00 20
20260508223603 81 26 3.5 9.6 0.00 0.00 0.00 21
20260508222703 82 24 3.5 7.8 0.00 0.00 0.00 20
20260508221805 82 162 3.5 7.8 0.00 0.00 0.00 21
20260508220903 81 174 3.5 6.1 0.00 0.00 0.00 19
20260508220003 81 160 3.5 6.1 0.00 0.00 0.00 19
20260508215613 81 133 2.6 5.2 0.00 0.00 0.00 20
20260508214503 81 131 1.7 6.1 0.00 0.00 0.00 20
20260508213603 81 81 2.6 7.8 0.00 0.00 0.00 23
20260508212703 81 332 1.7 3.5 0.00 0.00 0.00 24
20260508211803 81 302 2.6 7.8 0.00 0.00 0.00 20
20260508210903 80 63 3.5 9.6 0.00 0.00 0.00 21
20260508210003 80 345 2.6 8.7 0.00 0.00 0.00 23
20260508205403 80 9 2.6 7.0 0.00 0.00 0.00 27
20260508204503 80 345 4.3 12.2 0.00 0.00 0.00 21
20260508203814 81 325 5.2 10.4 0.00 0.00 0.00 21
20260508202703 80 307 1.7 6.1 0.00 0.00 0.00 21
20260508201803 79 352 3.5 10.4 0.00 0.00 0.00 23
20260508200903 80 340 2.6 10.4 0.00 0.00 0.00 24
20260508200003 80 347 2.6 7.8 0.00 0.00 0.00 24
20260508195403 79 14 2.6 6.1 0.00 0.00 0.00 21
20260508194503 79 9 2.6 6.1 0.00 0.00 0.00 22
20260508193603 79 360 3.5 9.6 0.00 0.00 0.00 23
20260508192703 79 1 3.5 9.6 0.00 0.00 0.00 23
20260508191803 78 347 3.5 11.3 0.00 0.00 0.00 23
20260508190903 79 312 3.5 7.8 0.00 0.00 0.00 23
20260508190213 79 313 4.3 9.6 0.00 0.00 0.00 21
20260508185403 79 314 2.6 5.2 0.00 0.00 0.00 24
20260508184503 78 350 1.7 5.2 0.00 0.00 0.00 23
20260508183603 77 360 3.5 5.2 0.00 0.00 0.00 22
20260508182703 77 360 7.0 11.3 0.00 0.00 0.00 23
20260508181803 77 351 7.0 11.3 0.00 0.00 0.00 25
20260508180903 77 6 3.5 8.7 0.00 0.00 0.00 25
20260508180212 78 51 1.7 7.8 0.00 0.00 0.00 28
20260508175403 77 36 3.5 10.4 0.00 0.00 0.00 24
20260508174503 77 17 1.7 6.1 0.00 0.00 0.00 24
20260508173603 76 340 1.7 4.3 0.00 0.00 0.00 26
20260508172703 75 356 2.6 5.2 0.00 0.00 0.00 26
20260508171803 76 360 2.6 5.2 0.00 0.00 0.00 26
20260508170903 76 360 0.9 5.2 0.00 0.00 0.00 26
20260508170003 75 352 2.6 5.2 0.00 0.00 0.00 27
20260508165403 74 352 2.6 4.3 0.00 0.00 0.00 30
20260508164504 73 360 2.6 4.3 0.00 0.00 0.00 28
20260508163603 73 335 2.6 5.2 0.00 0.00 0.00 28
20260508162914 73 291 2.6 4.3 0.00 0.00 0.00 28
20260508161803 72 324 0.9 2.6 0.00 0.00 0.00 26
20260508160903 72 33 0.9 2.6 0.00 0.00 0.00 27
20260508160003 70 40 0.0 2.6 0.00 0.00 0.00 29
20260508155403 69 37 0.0 1.7 0.00 0.00 0.00 31
20260508154503 68 44 0.9 2.6 0.00 0.00 0.00 31
20260508153603 66 40 0.9 3.5 0.00 0.00 0.00 32
20260508152703 65 34 0.9 3.5 0.00 0.00 0.00 36
20260508151803 64 34 0.9 3.5 0.00 0.00 0.00 35
20260508150903 62 32 0.9 3.5 0.00 0.00 0.00 37
20260508150004 61 34 1.7 3.5 0.00 0.00 0.00 37
20260508145403 60 38 0.9 2.6 0.00 0.00 0.00 38
20260508144503 58 31 2.6 4.3 0.00 0.00 0.00 37
20260508143603 58 21 1.7 4.3 0.00 0.00 0.00 39
20260508142703 57 33 0.9 4.3 0.00 0.00 0.00 39
20260508142014 56 34 0.9 2.6 0.00 0.00 0.00 40
20260508140903 53 355 0.0 2.6 0.00 0.00 0.00 42
20260508140213 52 348 0.9 3.5 0.00 0.00 0.00 44
20260508135403 50 260 0.9 2.6 0.00 0.00 0.00 46
20260508134503 48 227 0.0 1.7 0.00 0.00 0.00 49
20260508133813 48 226 0.9 2.6 0.00 0.00 0.00 53
20260508132912 47 194 1.7 3.5 0.00 0.00 0.00 54
20260508131803 46 181 0.0 0.9 0.00 0.00 0.00 50
20260508130903 46 178 0.0 2.6 0.00 0.00 0.00 48
20260508130004 47 177 0.0 2.6 0.00 0.00 0.00 47
20260508125403 47 225 0.9 3.5 0.00 0.00 0.00 47
20260508124503 46 259 0.9 1.7 0.00 0.00 0.00 47
20260508123813 46 257 0.9 3.5 0.00 0.00 0.00 47
20260508122703 46 267 0.9 2.6 0.00 0.00 0.00 48
20260508121803 44 268 0.9 2.6 0.00 0.00 0.00 52
20260508120903 43 262 0.0 2.6 0.00 0.00 0.00 54
20260508120003 43 261 0.0 0.9 0.00 0.00 0.00 53
20260508115403 43 282 0.0 1.7 0.00 0.00 0.00 53
20260508114503 43 269 0.0 1.7 0.00 0.00 0.00 53
20260508113603 44 266 0.9 1.7 0.00 0.00 0.00 52
20260508112703 44 268 0.9 3.5 0.00 0.00 0.00 52
20260508111803 45 272 0.0 2.6 0.00 0.00 0.00 49
20260508110903 45 0 0.0 0.0 0.00 0.00 0.00 48
20260508110214 46 0 0.0 0.0 0.00 0.00 0.00 48
20260508105403 46 0 0.0 0.0 0.00 0.00 0.00 48
20260508104503 47 0 0.0 0.0 0.00 0.00 0.00 46
20260508103603 49 260 0.0 1.7 0.00 0.00 0.00 45
20260508102703 51 261 1.7 3.5 0.00 0.00 0.00 42
20260508101803 54 198 0.9 4.3 0.00 0.00 0.00 41
20260508101114 56 159 0.9 2.6 0.00 0.00 0.00 34
20260508100003 56 140 1.7 3.5 0.00 0.00 0.00 33
20260508095403 56 123 1.7 4.3 0.00 0.00 0.00 33
20260508094503 56 137 2.6 4.3 0.00 0.00 0.00 33
20260508093814 56 132 1.7 4.3 0.00 0.00 0.00 33
20260508092703 55 132 1.7 3.5 0.00 0.00 0.00 34
20260508091803 56 132 1.7 3.5 0.00 0.00 0.00 34
20260508090903 56 130 1.7 3.5 0.00 0.00 0.00 34
20260508090003 55 127 1.7 3.5 0.00 0.00 0.00 35
20260508085404 56 126 1.7 3.5 0.00 0.00 0.00 34
20260508084714 56 124 1.7 3.5 0.00 0.00 0.00 34
20260508083603 56 123 1.7 2.6 0.00 0.00 0.00 35
20260508082913 56 123 1.7 3.5 0.00 0.00 0.00 34
20260508081803 56 171 1.7 4.3 0.00 0.00 0.00 33
20260508080903 56 180 1.7 2.6 0.00 0.00 0.00 34
20260508080003 56 182 1.7 3.5 0.00 0.00 0.00 34
20260508075403 54 182 1.7 3.5 0.00 0.00 0.00 35
20260508074713 54 182 0.9 2.6 0.00 0.00 0.00 36
20260508073603 54 182 0.9 2.6 0.00 0.00 0.00 38
20260508072703 54 182 0.9 2.6 0.00 0.00 0.00 37
20260508071803 55 182 0.9 2.6 0.00 0.00 0.00 37
20260508070903 57 182 0.9 3.5 0.00 0.00 0.00 35
20260508070004 57 182 0.9 2.6 0.00 0.00 0.00 33
20260508065403 56 182 0.9 2.6 0.00 0.00 0.00 34
20260508064503 56 183 1.7 3.5 0.00 0.00 0.00 34
20260508063603 55 202 0.9 3.5 0.00 0.00 0.00 35
20260508062703 57 203 0.9 3.5 0.00 0.00 0.00 33
20260508061803 57 205 0.9 3.5 0.00 0.00 0.00 33
20260508060903 57 212 1.7 5.2 0.00 0.00 0.00 32
20260508060006 57 146 0.9 3.5 0.00 0.00 0.00 32
20260508055403 57 146 0.9 3.5 0.00 0.00 0.00 33
20260508054503 58 146 0.9 3.5 0.00 0.00 0.00 32
20260508053603 58 146 1.7 3.5 0.00 0.00 0.00 33
20260508052703 59 146 0.9 3.5 0.00 0.00 0.00 30
20260508051803 59 146 1.7 3.5 0.00 0.00 0.00 31
20260508050903 59 146 1.7 2.6 0.00 0.00 0.00 31
20260508050003 61 146 0.9 2.6 0.00 0.00 0.00 29
20260508045403 62 146 1.7 3.5 0.00 0.00 0.00 28
20260508044503 64 146 1.7 3.5 0.00 0.00 0.00 26
20260508043603 64 146 2.6 6.1 0.00 0.00 0.00 25
20260508042703 64 135 0.9 3.5 0.00 0.00 0.00 26
20260508041803 64 134 0.9 3.5 0.00 0.00 0.00 26
20260508040903 65 156 1.7 5.2 0.00 0.00 0.00 26
20260508040213 65 195 1.7 4.3 0.00 0.00 0.00 26
20260508035612 65 195 2.6 5.2 0.00 0.00 0.00 26
20260508034503 65 184 1.7 5.2 0.00 0.00 0.00 26
20260508033603 65 192 2.6 5.2 0.00 0.00 0.00 26
20260508032912 66 180 2.6 8.7 0.00 0.00 0.00 25
20260508032014 66 176 2.6 6.1 0.00 0.00 0.00 26
20260508031113 66 230 1.7 6.1 0.00 0.00 0.00 25
20260508030004 68 203 2.6 7.8 0.00 0.00 0.00 25
20260508025403 68 196 4.3 9.6 0.00 0.00 0.00 24
20260508024503 69 185 5.2 10.4 0.00 0.00 0.00 23
20260508023603 70 179 3.5 8.7 0.00 0.00 0.00 22
20260508022703 70 164 2.6 13.0 0.00 0.00 0.00 22
20260508021803 70 182 2.6 7.0 0.00 0.00 0.00 23
20260508021113 71 172 2.6 7.8 0.00 0.00 0.00 22
20260508020004 71 164 3.5 7.8 0.00 0.00 0.00 22
20260508015403 71 165 3.5 7.8 0.00 0.00 0.00 22
20260508014713 71 163 2.6 7.8 0.00 0.00 0.00 22
20260508013603 70 175 2.6 6.1 0.00 0.00 0.00 23
20260508012914 70 178 2.6 6.1 0.00 0.00 0.00 23
20260508011803 71 194 3.5 7.8 0.00 0.00 0.00 23
20260508010903 71 193 2.6 6.1 0.00 0.00 0.00 22
20260508010003 72 198 2.6 6.1 0.00 0.00 0.00 22
20260508005613 73 199 2.6 4.3 0.00 0.00 0.00 23
20260508004503 74 192 2.6 6.1 0.00 0.00 0.00 21
20260508003814 75 177 3.5 8.7 0.00 0.00 0.00 21
20260508002703 76 181 2.6 7.8 0.00 0.00 0.00 20
20260508001803 75 215 3.5 12.2 0.00 0.00 0.00 21
20260508000903 75 188 2.6 12.2 0.00 0.00 0.00 21
20260508000003 76 220 1.7 8.7 0.00 0.00 0.00 20
20260507235403 76 248 2.6 5.2 0.00 0.00 0.00 20
20260507234503 78 249 5.2 12.2 0.00 0.00 0.00 18